FENGYUN 1C DEB, 38116

Orbit data source: Space-Track

FENGYUN 1C DEB, 38116 is space debris in SSO originally from a launch on Mon, 10 May 1999 UTC launched from the Taiyaun Space Center, China (TSC). Fengyun 1C debris stems from the Chinese weather satellite Fengyun-1C, which was intentionally destroyed by a Chinese anti-satellite missile in 2007. This event dramatically increased the amount of space debris, with thousands of trackable fragments posing hazards to satellites and human spaceflight. The Fengyun 1C debris cloud has become a focal point in discussions about space sustainability and the need for international regulations to prevent the creation of new debris.

Loading next visibility...
Identifier
38116, 1999-025EPM
Orbit
SSO
Country
Flag of CNCN / PRC
Related business
Manufacturer
Unknown
Mission
Spacecraft
Bus & Motor
Unknown
Mass
Unknown
Launch date (UTC)
1999-05-10 (27 years ago)
Launch vehicle
Unknown
Launch site
Taiyaun Space Center, China (TSC)
Object type
Payload
Rocket body
Debris
Shape & HBR
Unknown shape, 0.1 m
Radar Cross Section
Small (<0.1 m²)

Expand to show TLE details & history
Last TLE update: 2 days ago

TLE from 2 days ago
0 FENGYUN 1C DEB
1 38116U 99025EPM 26103.39340073  .00000678  00000-0  34738-3 0  9994
2 38116  98.6961 144.6097 0072417 157.2533 219.1595 14.17297529662089
Epoch: 2026-04-13T09:26Z
TLE epoch observation values (Epoch: 2026-04-13T09:26:29.823Z)
Latitude
15.68435°
Longitude
158.95225°
Altitude
877.396 km
Speed
7.394 km/s
True Right ascension
09h 28m 38s
True Declination
15° 35' 48"
Sunlit
Object was in daylight at epoch
Visualization orbit readout
Latitude
Unknown
Longitude
Unknown
Altitude
Unknown
Speed
Unknown
Apparent Right ascension
Unknown
Apparent Declination
Unknown
Sunlit
N/A
Visualization observer readout
Local Sidereal Time
14:18:29
Azimuth
Unknown
Elevation
Unknown
Doppler factor
Unknown
Orbital elements
Apogee altitude
883.879 km
Perigee altitude
779.457 km
Semi-major axis
7,209.805 km
Eccentricity
0.00724
Inclination
98.6961°
RAAN
144.6097°
Arg. of periapsis
157.2533°
True anomaly
218.63913°
Mean anomaly
219.1595°
Eccentric anomaly
218.89895°
Mean motion
3.54534 °/min
Orbital period
101.54 mins
BSTAR
0.00034738
Loading maneuver chart data...
Computing Atmospheric mass density...
Loading historical data...
Loading historical data...
Loading historical data...
Loading historical data...
Loading historical data...
Loading historical data...
Loading historical data...

Documentation

Showing up to 5 results
|